This demonstration page uses our WeatherBlox Daily Observations layout. Learn more.

Left ArrowRight Arrow

39.92423, -83.80882

Hourly Observations for January 23, 2015

Temp ( °F °C ) Dew Point ( °F °C ) Humidity (%) Winds ( mph kmh ) Pressure ( in mb ) Visibility ( mi km ) Precip ( " mm )
12:56 am 00:56 Cloudy 30 -1.1 25 -3.8 82 82 S 5 7 30.42 1030 8 13 0.00 0.00
1:56 am 01:56 Cloudy 30 -1.1 25 -3.8 82 82 SSE 3 6 30.41 1030 8 13 0.00 0.00
2:56 am 02:56 Cloudy 30 -1.1 25 -3.8 82 82 SSE 3 6 30.39 1029 8 13 0.00 0.00
3:56 am 03:56 Cloudy 30 -1.1 24 -4.4 79 79 S 7 11 30.37 1029 8 13 0.00 0.00
4:56 am 04:56 Cloudy 29 -1.6 24 -4.4 81 81 SSE 3 6 30.36 1028 8 13 0.00 0.00
5:56 am 05:56 Cloudy 29 -1.6 24 -4.4 81 81 SSE 5 7 30.34 1027 8 13 0.00 0.00
6:56 am 06:56 Cloudy 29 -1.6 24 -4.4 81 81 SE 6 9 30.33 1027 8 13 0.00 0.00
7:56 am 07:56 Cloudy 28 -2.2 23 -5 81 81 S 3 6 30.30 1026 8 13 0.00 0.00
8:56 am 08:56 Cloudy 28 -2.2 24 -4.4 85 85 SSE 5 7 30.30 1026 7 11 0.00 0.00
9:56 am 09:56 Cloudy 29 -1.6 24 -4.4 81 81 Calm 30.28 1025 7 11 0.00 0.00
10:56 am 10:56 Cloudy 30 -1.1 24 -4.4 79 79 Calm 30.25 1024 7 11 0.00 0.00
11:56 am 11:56 Cloudy 32 0 25 -3.8 76 76 Calm 30.20 1023 7 11 0.00 0.00
12:56 pm 12:56 Cloudy 32 0 25 -3.8 76 76 S 3 6 30.18 1022 7 11 0.00 0.00
1:56 pm 13:56 Cloudy 33 0.5 25 -3.8 73 73 Calm 30.12 1020 7 11 0.00 0.00
2:56 pm 14:56 Mostly Cloudy 33 0.5 26 -3.3 76 76 Calm 30.09 1019 7 11 0.00 0.00
3:56 pm 15:56 Partly Cloudy 33 0.5 26 -3.3 76 76 Calm 30.07 1018 7 11 0.00 0.00
4:56 pm 16:56 Sunny 33 0.5 26 -3.3 76 76 SSE 3 6 30.04 1017 7 11 0.00 0.00
5:56 pm 17:56 Partly Cloudy 31 -0.5 26 -3.3 82 82 SSE 3 6 30.04 1017 8 13 0.00 0.00
6:03 pm 18:03 Mostly Cloudy 30 -1 27 -3 86 86 SSE 3 6 30.06 1018 8 13 0.00 0.00
6:56 pm 18:56 Cloudy 31 -0.5 27 -2.7 85 85 SSE 3 6 30.03 1017 8 13 0.00 0.00
7:56 pm 19:56 Cloudy 31 -0.5 27 -2.7 85 85 SSE 3 6 30.01 1016 7 11 0.00 0.00
8:31 pm 20:31 Partly Cloudy 30 -1 27 -3 86 86 VRB 6 9 30.00 1016 7 11 0.00 0.00
8:56 pm 20:56 Clear 31 -0.5 26 -3.3 82 82 SSE 5 7 29.96 1015 7 11 0.00 0.00
9:56 pm 21:56 Clear 30 -1.1 26 -3.3 85 85 SSE 5 7 29.93 1014 7 11 0.00 0.00
10:56 pm 22:56 Partly Cloudy 30 -1.1 26 -3.3 85 85 S 3 6 29.90 1012 7 11 0.00 0.00
11:56 pm 23:56 Clear with Mist and Fog 29 -1.6 27 -2.7 92 92 S 5 7 29.89 1012 5 8 0.00 0.00

Powered by AerisWeather